Location: *
(43.4667°N, 11.6833°E)
Time: 14:32:24
(UTC+00:00)

Cosmos 1818 - Pass Details

Date: 19 July 2019
Orbit: 774 x 800 km, 65.0° (Epoch: 22 August)

Event Time Altitude Azimuth Distance (km) Brightness Sun altitude
Rises 21:44:22 0° 323° (NW) 3,313 8.2 -22.1°
Reaches altitude 10° 21:46:50 10° 320° (NW) 2,378 7.1 -22.3°
Maximum altitude 21:52:12 61° 241° (WSW) 902 3.7 -22.7°
Enters shadow 21:53:19 50° 193° (SSW) 1,010 3.7 -22.8°
